FW5857 Weather Reports


Display with metric or nautical units.
time (UTC)temp
F
wind
direction
speed
MPH
gust
MPH
rain 1hr
in
rain 24hr
in
rain mn
in
humidity
%
barometer
mb
20260906111023 66 81 2.0 7.0 0.00 0.00 0.00 99 1019.5
20260906110523 66 60 3.0 8.0 0.00 0.00 0.00 99 1019.5
20260906110023 66 44 2.0 9.0 0.00 0.00 0.00 99 1019.5
20260906105523 66 69 4.0 8.0 0.00 0.00 0.00 99 1019.4
20260906105022 66 42 3.0 9.0 0.00 0.00 0.00 99 1019.5
20260906104522 66 71 3.0 9.0 0.00 0.00 0.00 99 1019.4
20260906104022 66 57 2.0 8.0 0.00 0.00 0.00 99 1019.4
20260906103522 66 61 2.0 8.0 0.00 0.00 0.00 99 1019.3
20260906103022 66 40 3.0 6.0 0.00 0.00 0.00 99 1019.4
20260906102542 66 38 2.0 8.0 0.00 0.00 0.00 99 1019.3
20260906102022 66 65 2.0 4.0 0.00 0.00 0.00 99 1019.1
20260906101522 66 67 2.0 6.0 0.00 0.00 0.00 99 1019.1
20260906101022 66 80 2.0 6.0 0.00 0.00 0.00 99 1019.1
20260906100522 66 60 2.0 6.0 0.00 0.00 0.00 99 1019.0
20260906100022 66 72 3.0 7.0 0.00 0.00 0.00 99 1019.0
20260906095542 66 45 3.0 7.0 0.00 0.00 0.00 99 1019.0
20260906095022 66 42 2.0 8.0 0.00 0.00 0.00 99 1019.1
20260906094522 66 45 3.0 9.0 0.00 0.00 0.00 99 1019.0
20260906094022 66 59 3.0 6.0 0.00 0.00 0.00 99 1019.0
20260906093522 66 50 3.0 7.0 0.00 0.00 0.00 99 1019.0
20260906093042 66 50 2.0 6.0 0.00 0.00 0.00 99 1018.9
20260906092541 66 28 3.0 7.0 0.00 0.00 0.00 99 1018.8
20260906092022 66 45 1.0 4.0 0.00 0.00 0.00 99 1018.8
20260906091521 66 42 2.0 4.0 0.00 0.00 0.00 99 1018.9
20260906091021 66 57 1.0 5.0 0.00 0.00 0.00 99 1018.8
20260906090521 66 44 1.0 4.0 0.00 0.00 0.00 99 1018.9
20260906090021 66 50 2.0 4.0 0.00 0.00 0.00 99 1018.9
20260906085541 66 17 2.0 4.0 0.00 0.00 0.00 99 1018.9
20260906085021 66 19 2.0 4.0 0.00 0.00 0.00 99 1018.8
20260906084521 66 43 1.0 4.0 0.00 0.00 0.00 99 1018.8
20260906084041 66 39 2.0 5.0 0.00 0.00 0.00 99 1018.7
20260906083521 66 44 1.0 6.0 0.00 0.00 0.00 99 1018.8
20260906083020 66 24 1.0 4.0 0.00 0.00 0.00 99 1018.8
20260906082520 66 38 2.0 6.0 0.00 0.00 0.00 99 1018.8
20260906082022 66 39 2.0 5.0 0.00 0.00 0.00 99 1018.8
20260906081520 66 32 1.0 4.0 0.00 0.00 0.00 99 1018.9
20260906081020 66 44 1.0 4.0 0.00 0.00 0.00 99 1018.8
20260906080539 66 27 2.0 6.0 0.00 0.00 0.00 99 1018.8
20260906080039 66 51 1.0 6.0 0.00 0.00 0.00 99 1018.7
20260906075519 66 37 2.0 4.0 0.00 0.00 0.00 99 1018.7
20260906075019 66 43 2.0 6.0 0.00 0.00 0.00 99 1018.8
20260906074519 66 35 2.0 4.0 0.00 0.00 0.00 99 1018.8
20260906074019 67 44 1.0 3.0 0.00 0.00 0.00 99 1019.0
20260906073519 67 40 1.0 4.0 0.00 0.00 0.00 99 1018.9
20260906073019 67 41 2.0 4.0 0.00 0.00 0.00 99 1018.9
20260906072518 67 73 1.0 3.0 0.00 0.00 0.00 99 1018.9
20260906072038 67 46 1.0 3.0 0.00 0.00 0.00 99 1018.7
20260906071518 67 58 1.0 3.0 0.00 0.00 0.00 99 1018.8
20260906071018 67 50 1.0 4.0 0.00 0.00 0.00 99 1018.8
20260906070538 67 39 2.0 4.0 0.00 0.00 0.00 99 1018.8
20260906070018 67 36 2.0 6.0 0.00 0.00 0.00 99 1018.8
20260906065518 67 56 1.0 5.0 0.00 0.00 0.00 98 1018.9
20260906065017 67 76 1.0 3.0 0.00 0.00 0.00 98 1018.9
20260906064517 67 45 2.0 5.0 0.00 0.00 0.00 98 1019.0
20260906064018 68 31 2.0 4.0 0.00 0.00 0.00 98 1019.1
20260906063517 68 12 1.0 3.0 0.00 0.00 0.00 98 1019.0
20260906063017 68 33 1.0 4.0 0.00 0.00 0.00 97 1019.0
20260906062517 68 37 2.0 5.0 0.00 0.00 0.00 97 1019.1
20260906062017 68 33 2.0 4.0 0.00 0.00 0.00 97 1019.1
20260906061536 68 31 2.0 4.0 0.00 0.00 0.00 97 1019.0
20260906061016 68 73 1.0 4.0 0.00 0.00 0.00 96 1019.0
20260906060516 69 61 2.0 5.0 0.00 0.00 0.00 96 1019.0
20260906060016 69 59 3.0 6.0 0.00 0.00 0.00 96 1019.0
20260906055516 69 55 3.0 5.0 0.00 0.00 0.00 95 1019.1
20260906055016 69 70 2.0 5.0 0.00 0.00 0.00 95 1019.1
20260906054516 69 43 3.0 10.0 0.00 0.00 0.00 96 1019.0
20260906054016 69 28 2.0 7.0 0.00 0.00 0.00 96 1019.1
20260906053516 69 40 3.0 9.0 0.00 0.00 0.00 96 1019.0
20260906053016 69 70 2.0 5.0 0.00 0.00 0.00 96 1018.9
20260906052516 69 66 2.0 5.0 0.00 0.00 0.00 96 1018.9
20260906052016 69 43 3.0 8.0 0.00 0.00 0.00 96 1018.9
20260906051516 69 45 3.0 7.0 0.00 0.00 0.00 96 1018.8
20260906051015 69 61 4.0 11.0 0.00 0.00 0.00 96 1018.9
20260906050523 69 43 4.0 10.0 0.00 0.00 0.00 96 1018.9
20260906050035 69 56 3.0 9.0 0.00 0.00 0.00 96 1018.7
20260906045523 69 41 3.0 7.0 0.00 0.00 0.00 96 1018.7
20260906045043 69 60 3.0 5.0 0.00 0.00 0.00 96 1018.7
20260906044523 69 45 3.0 9.0 0.00 0.00 0.00 96 1018.7
20260906044023 69 20 3.0 7.0 0.00 0.00 0.00 96 1018.6
20260906043523 69 42 2.0 6.0 0.00 0.00 0.00 96 1018.6
20260906043023 69 46 4.0 7.0 0.00 0.00 0.00 96 1018.5
20260906042643 69 21 3.0 8.0 0.00 0.00 0.00 96 1018.5
20260906042022 69 26 3.0 8.0 0.00 0.00 0.00 96 1018.4
20260906041523 69 59 3.0 9.0 0.00 0.00 0.00 96 1018.4
20260906041022 69 74 2.0 6.0 0.00 0.00 0.00 96 1018.3
20260906040522 69 89 3.0 7.0 0.00 0.00 0.00 96 1018.2
20260906040022 69 68 4.0 8.0 0.00 0.00 0.00 96 1018.2
20260906035522 69 73 3.0 6.0 0.00 0.00 0.00 96 1018.1
20260906035022 69 74 3.0 7.0 0.00 0.00 0.00 96 1018.1
20260906034522 69 58 4.0 9.0 0.00 0.00 0.00 96 1018.1
20260906034022 69 63 4.0 15.0 0.00 0.00 0.00 96 1017.9
20260906033522 69 68 3.0 9.0 0.00 0.00 0.00 96 1017.8
20260906033022 69 72 3.0 7.0 0.00 0.00 0.00 96 1017.8
20260906032521 69 52 3.0 7.0 0.00 0.00 0.00 96 1017.7
20260906032021 69 58 3.0 8.0 0.00 0.00 0.00 95 1017.7
20260906031521 69 53 4.0 8.0 0.00 0.00 0.00 95 1017.7
20260906031022 69 58 2.0 6.0 0.00 0.00 0.00 94 1017.7
20260906030521 69 76 2.0 6.0 0.00 0.00 0.00 94 1017.7
20260906030041 70 62 3.0 11.0 0.00 0.00 0.00 94 1017.7
20260906025541 70 54 4.0 11.0 0.00 0.00 0.00 94 1017.7
20260906025021 70 56 3.0 10.0 0.00 0.00 0.00 93 1017.7
20260906024521 70 64 3.0 11.0 0.00 0.00 0.00 93 1017.7
20260906024021 70 74 3.0 8.0 0.00 0.01 0.00 92 1017.7
20260906023521 70 52 4.0 11.0 0.00 0.01 0.00 92 1017.6
20260906023021 71 61 1.0 4.0 0.00 0.01 0.00 92 1017.5
20260906022521 71 60 3.0 7.0 0.00 0.18 0.00 91 1017.5
20260906022041 71 51 1.0 8.0 0.00 0.18 0.00 91 1017.5
20260906021541 71 31 2.0 6.0 0.00 0.18 0.00 92 1017.7
20260906021021 71 52 3.0 8.0 0.00 0.18 0.00 92 1017.6
20260906020521 71 76 4.0 9.0 0.00 0.18 0.00 92 1017.6
20260906020021 71 75 6.0 12.0 0.00 0.18 0.00 92 1017.6
20260906015541 71 73 4.0 8.0 0.00 0.18 0.00 92 1017.7
20260906015020 71 68 2.0 7.0 0.00 0.18 0.00 92 1017.7
20260906014520 71 63 3.0 11.0 0.00 0.18 0.00 92 1017.7
20260906014020 71 88 2.0 7.0 0.00 0.18 0.00 92 1017.8
20260906013520 71 44 4.0 9.0 0.00 0.18 0.00 92 1017.8
20260906013020 71 60 5.0 13.0 0.00 0.18 0.00 92 1017.8
20260906012519 71 67 3.0 9.0 0.00 0.18 0.00 92 1017.8
20260906012019 71 52 4.0 8.0 0.00 0.18 0.00 91 1017.8
20260906011519 71 50 5.0 16.0 0.00 0.18 0.00 91 1017.7
20260906011019 71 62 4.0 9.0 0.00 0.18 0.00 91 1017.7
20260906010519 71 46 3.0 12.0 0.00 0.18 0.00 90 1017.8
20260906010019 71 39 3.0 9.0 0.00 0.18 0.00 90 1017.8
20260906005519 71 17 3.0 10.0 0.00 0.18 0.00 90 1017.8
20260906005019 71 54 3.0 8.0 0.00 0.18 0.00 90 1017.6
20260906004539 71 75 3.0 9.0 0.00 0.18 0.00 90 1017.6
20260906004019 72 45 4.0 10.0 0.00 0.18 0.00 90 1017.4
20260906003518 72 60 2.0 6.0 0.00 0.18 0.00 91 1017.6
20260906003018 72 71 3.0 10.0 0.00 0.18 0.00 91 1017.5
20260906002518 72 63 3.0 11.0 0.00 0.18 0.00 91 1017.5
20260906002019 72 62 4.0 11.0 0.00 0.18 0.00 90 1017.4
20260906001518 72 67 3.0 8.0 0.00 0.18 0.00 90 1017.5
20260906001018 72 64 5.0 13.0 0.00 0.18 0.00 90 1017.4
20260906000518 72 68 5.0 12.0 0.00 0.18 0.00 90 1017.3
20260906000018 72 61 7.0 15.0 0.00 0.18 0.00 89 1017.3
20260905235518 73 61 5.0 17.0 0.00 0.18 0.00 89 1017.2
20260905235018 73 59 4.0 13.0 0.00 0.18 0.00 88 1017.1
20260905234520 74 54 4.0 13.0 0.00 0.18 0.00 88 1017.0
20260905234018 74 51 4.0 15.0 0.00 0.18 0.00 88 1017.0
20260905233517 74 45 3.0 10.0 0.00 0.18 0.00 87 1017.1
20260905233037 74 57 3.0 9.0 0.00 0.18 0.00 86 1017.1
20260905232517 75 46 5.0 11.0 0.00 0.18 0.00 85 1017.0
20260905232017 75 30 4.0 13.0 0.00 0.18 0.00 84 1017.0
20260905231517 75 38 3.0 10.0 0.00 0.18 0.00 83 1017.0
20260905231017 76 48 6.0 15.0 0.00 0.18 0.00 82 1017.0
20260905230517 76 50 5.0 15.0 0.00 0.18 0.00 82 1016.8
20260905230017 76 32 4.0 15.0 0.00 0.18 0.00 82 1016.7
20260905225543 76 38 3.0 12.0 0.00 0.18 0.00 82 1016.7
20260905225023 77 33 4.0 12.0 0.00 0.18 0.00 81 1016.6
20260905224522 77 30 4.0 13.0 0.00 0.18 0.00 81 1016.5
20260905224022 78 30 5.0 13.0 0.00 0.18 0.00 81 1016.5
20260905223521 78 57 5.0 12.0 0.00 0.18 0.00 81 1016.5
20260905223021 79 48 6.0 17.0 0.00 0.18 0.00 79 1016.4
20260905222520 79 25 3.0 7.0 0.00 0.18 0.00 79 1016.4
20260905222020 78 32 4.0 9.0 0.00 0.18 0.00 80 1016.4
20260905221539 78 33 4.0 13.0 0.00 0.18 0.00 81 1016.3
20260905221019 79 57 7.0 15.0 0.00 0.18 0.00 80 1016.3
20260905220519 80 62 4.0 11.0 0.00 0.18 0.00 79 1016.3
20260905220018 80 39 4.0 9.0 0.00 0.18 0.00 78 1016.2
20260905215518 81 59 3.0 13.0 0.00 0.18 0.00 76 1016.4
20260905215017 81 34 2.0 8.0 0.00 0.18 0.00 76 1016.2
20260905214517 79 14 3.0 9.0 0.00 0.18 0.00 77 1016.2
20260905214017 80 16 3.0 10.0 0.00 0.18 0.00 77 1016.1
20260905213517 80 0 4.0 14.0 0.00 0.18 0.00 75 1016.1
20260905213016 80 357 5.0 11.0 0.00 0.18 0.00 74 1016.0
20260905212516 80 1 5.0 13.0 0.00 0.18 0.00 73 1016.1
20260905212017 80 355 4.0 11.0 0.00 0.18 0.00 73 1016.1
20260905211523 80 357 5.0 11.0 0.00 0.18 0.00 73 1016.2
20260905211023 80 357 3.0 13.0 0.00 0.18 0.00 74 1016.1
20260905210523 80 3 2.0 9.0 0.00 0.18 0.00 74 1016.1
20260905210023 79 14 1.0 6.0 0.00 0.18 0.00 75 1016.0
20260905205522 79 38 2.0 7.0 0.00 0.18 0.00 77 1016.0
20260905205022 79 38 3.0 7.0 0.00 0.18 0.00 77 1016.1
20260905204522 80 11 3.0 6.0 0.00 0.18 0.00 77 1016.2
20260905204021 79 10 2.0 5.0 0.00 0.18 0.00 77 1016.4
20260905203521 79 13 4.0 7.0 0.00 0.18 0.00 77 1016.3
20260905203021 79 1 3.0 7.0 0.00 0.18 0.00 78 1016.3
20260905202520 78 359 4.0 7.0 0.00 0.18 0.00 79 1016.3
20260905202020 78 37 3.0 7.0 0.00 0.18 0.00 79 1016.2
20260905201520 78 350 3.0 9.0 0.00 0.18 0.00 81 1016.3
20260905201020 79 35 3.0 11.0 0.00 0.18 0.00 81 1016.3
20260905200520 79 27 3.0 7.0 0.00 0.18 0.00 80 1016.4
20260905200019 78 8 3.0 9.0 0.00 0.18 0.00 81 1016.3
20260905195519 78 24 3.0 7.0 0.00 0.18 0.00 82 1016.4
20260905195019 78 19 3.0 9.0 0.00 0.18 0.00 83 1016.5
20260905194519 78 359 5.0 11.0 0.00 0.18 0.00 83 1016.5
20260905194018 78 3 3.0 8.0 0.00 0.18 0.00 83 1016.6
20260905193518 77 29 3.0 10.0 0.00 0.18 0.00 84 1016.7
20260905193038 76 351 4.0 10.0 0.00 0.18 0.00 86 1016.8
20260905192517 77 23 3.0 7.0 0.00 0.18 0.00 86 1016.6
20260905192037 76 356 3.0 7.0 0.00 0.18 0.00 87 1016.8
20260905191517 76 15 4.0 9.0 0.00 0.18 0.00 87 1016.8
20260905191016 76 13 4.0 9.0 0.00 0.18 0.00 87 1016.9
20260905190516 76 11 4.0 10.0 0.00 0.18 0.00 87 1017.0
20260905190015 76 30 3.0 9.0 0.00 0.18 0.00 87 1016.9
20260905185535 76 22 3.0 6.0 0.00 0.18 0.00 87 1016.9
20260905185023 76 22 2.0 6.0 0.00 0.18 0.00 87 1017.0
20260905184523 75 20 2.0 5.0 0.00 0.18 0.00 88 1017.1
20260905184023 75 37 1.0 3.0 0.00 0.18 0.00 90 1017.1
20260905183522 75 33 2.0 6.0 0.00 0.18 0.00 89 1017.2
20260905183022 75 12 3.0 6.0 0.00 0.18 0.00 89 1017.0
20260905182542 75 18 2.0 6.0 0.00 0.18 0.00 89 1017.1
20260905182022 74 19 3.0 6.0 0.00 0.18 0.00 90 1017.1
20260905181521 75 33 3.0 13.0 0.00 0.18 0.00 91 1017.2
20260905181023 75 29 4.0 11.0 0.00 0.18 0.00 89 1017.0
20260905180521 75 58 2.0 5.0 0.00 0.18 0.00 89 1017.1
20260905180020 75 11 2.0 7.0 0.00 0.18 0.00 89 1017.0
20260905175520 75 0 3.0 7.0 0.00 0.18 0.00 89 1017.0
20260905175020 75 22 3.0 8.0 0.00 0.18 0.00 90 1017.0
20260905174519 75 20 4.0 11.0 0.00 0.18 0.00 89 1017.0
20260905174019 75 18 3.0 9.0 0.00 0.18 0.00 90 1016.9
20260905173519 75 359 4.0 14.0 0.00 0.18 0.00 89 1016.9
20260905173019 75 13 3.0 8.0 0.00 0.18 0.00 89 1016.9
20260905172518 75 18 2.0 5.0 0.00 0.18 0.00 89 1016.9
20260905172018 75 18 3.0 8.0 0.00 0.18 0.00 89 1016.9
20260905171518 75 359 4.0 12.0 0.00 0.18 0.00 90 1016.9
20260905171018 75 10 5.0 14.0 0.00 0.18 0.00 89 1016.9
20260905170517 75 4 7.0 14.0 0.00 0.18 0.00 89 1016.9
20260905170017 76 10 4.0 11.0 0.00 0.18 0.00 89 1017.0
20260905165517 76 23 4.0 13.0 0.00 0.19 0.00 88 1017.0
20260905165017 76 351 3.0 10.0 0.00 0.19 0.00 87 1017.1
20260905164516 76 358 5.0 12.0 0.00 0.19 0.00 87 1017.1
20260905164056 76 2 4.0 12.0 0.00 0.19 0.00 88 1017.1
20260905163536 76 352 5.0 10.0 0.00 0.19 0.00 89 1017.0
20260905163016 76 12 3.0 9.0 0.00 0.19 0.00 89 1017.1
20260905162515 76 69 2.0 6.0 0.00 0.19 0.00 89 1017.0
20260905162024 76 20 2.0 8.0 0.00 0.19 0.00 90 1016.9
20260905161523 76 25 2.0 6.0 0.00 0.19 0.00 90 1017.0
20260905161023 76 42 3.0 11.0 0.00 0.19 0.00 89 1016.9
20260905160522 75 62 2.0 7.0 0.00 0.19 0.00 90 1016.9
20260905160022 75 32 3.0 9.0 0.00 0.19 0.00 90 1016.9
20260905155522 76 4 4.0 8.0 0.00 0.19 0.00 90 1016.9
20260905155021 76 12 3.0 10.0 0.00 0.19 0.00 90 1016.8
20260905154521 76 1 4.0 9.0 0.00 0.19 0.00 90 1016.7
20260905154021 76 72 4.0 12.0 0.00 0.19 0.00 90 1016.8
20260905153541 75 69 4.0 10.0 0.00 0.19 0.00 91 1016.6
20260905153020 75 60 4.0 13.0 0.00 0.19 0.00 92 1016.5
20260905152520 75 33 3.0 9.0 0.00 0.19 0.00 92 1016.4
20260905152020 75 51 5.0 11.0 0.00 0.19 0.00 92 1016.5
20260905151520 74 49 3.0 9.0 0.00 0.19 0.00 94 1016.4
20260905151040 73 9 2.0 9.0 0.00 0.19 0.00 95 1016.4
20260905150520 74 5 3.0 8.0 0.00 0.19 0.00 95 1016.3
20260905150019 73 18 3.0 10.0 0.00 0.19 0.00 95 1016.3
20260905145519 73 43 2.0 5.0 0.00 0.19 0.00 96 1016.3
20260905145018 73 44 2.0 6.0 0.00 0.19 0.00 97 1016.3
20260905144521 73 46 4.0 10.0 0.00 0.19 0.00 97 1016.4
20260905144018 73 41 3.0 7.0 0.00 0.19 0.00 97 1016.3
20260905143518 73 59 3.0 10.0 0.00 0.19 0.00 97 1016.3
20260905143017 73 39 2.0 6.0 0.00 0.19 0.00 97 1016.1
20260905142537 73 40 2.0 6.0 0.00 0.19 0.00 97 1016.1
20260905142017 73 50 2.0 5.0 0.00 0.19 0.00 98 1016.3
20260905141517 73 45 3.0 8.0 0.00 0.19 0.00 99 1016.4
20260905141017 72 27 2.0 6.0 0.00 0.19 0.00 99 1016.3
20260905140537 72 22 3.0 11.0 0.00 0.19 0.00 99 1016.2
20260905140016 72 55 3.0 12.0 0.00 0.19 0.00 99 1016.2
20260905135516 72 49 3.0 10.0 0.00 0.19 0.00 99 1016.2
20260905135015 72 41 3.0 8.0 0.00 0.19 0.00 99 1016.0
20260905134524 72 35 2.0 8.0 0.00 0.19 0.00 99 1016.0
20260905134024 71 59 3.0 7.0 0.00 0.19 0.00 99 1015.9
20260905133523 71 51 3.0 9.0 0.00 0.19 0.00 99 1016.1
20260905133024 71 43 2.0 5.0 0.00 0.19 0.00 99 1016.0
20260905132523 71 27 2.0 7.0 0.00 0.19 0.00 99 1016.1
20260905132022 71 45 1.0 4.0 0.00 0.19 0.00 99 1016.2
20260905131522 71 35 2.0 6.0 0.00 0.19 0.00 99 1016.4
20260905131042 71 21 2.0 5.0 0.00 0.19 0.00 99 1016.5
20260905130521 70 28 2.0 5.0 0.00 0.19 0.00 99 1016.4
20260905130021 70 41 3.0 10.0 0.00 0.19 0.00 99 1015.9
20260905125521 70 37 4.0 9.0 0.00 0.19 0.00 99 1015.9
20260905125021 71 32 2.0 6.0 0.00 0.19 0.00 99 1015.9
20260905124520 71 36 2.0 10.0 0.00 0.19 0.00 99 1015.8
20260905124020 71 49 3.0 6.0 0.00 0.19 0.00 99 1015.7
20260905123520 71 35 2.0 6.0 0.00 0.19 0.00 99 1015.5
20260905123020 71 70 2.0 5.0 0.00 0.19 0.00 99 1015.3
20260905122539 71 61 3.0 6.0 0.00 0.19 0.00 99 1015.2
20260905122018 71 61 3.0 8.0 0.00 0.19 0.00 99 1015.2
20260905121538 71 42 3.0 8.0 0.00 0.19 0.00 99 1015.1
20260905121038 71 29 3.0 7.0 0.00 0.19 0.00 99 1015.1
20260905120517 71 58 1.0 5.0 0.00 0.19 0.00 99 1015.0
20260905120017 71 59 3.0 11.0 0.00 0.19 0.00 99 1014.9
20260905115517 71 41 3.0 8.0 0.00 0.19 0.00 99 1014.9
20260905115016 71 74 2.0 5.0 0.00 0.19 0.00 99 1014.9
20260905114516 71 29 1.0 3.0 0.00 0.19 0.00 99 1014.9
20260905114016 71 50 1.0 4.0 0.00 0.19 0.00 99 1014.7
20260905113516 71 59 1.0 4.0 0.00 0.19 0.00 99 1014.6
20260905113016 72 42 1.0 4.0 0.00 0.19 0.00 99 1014.5
20260905112543 72 72 1.0 3.0 0.00 0.19 0.00 99 1014.5
20260905112023 72 74 1.0 4.0 0.00 0.19 0.00 99 1014.4
20260905111522 72 81 1.0 3.0 0.00 0.19 0.00 99 1014.3